Oasis
DateTemperatureDew Point
08/14 - 05:15 AM82.3°77.9°
08/14 - 05:00 AM82.3°77.9°
08/14 - 04:45 AM82.5°78.0°
08/14 - 04:30 AM82.6°78.0°
08/14 - 04:15 AM82.8°78.1°
08/14 - 04:00 AM83.1°78.4°
08/14 - 03:45 AM83.5°78.6°
08/14 - 03:30 AM83.7°78.8°
08/14 - 03:15 AM83.3°78.3°
08/14 - 03:00 AM83.2°78.0°
08/14 - 02:45 AM83.3°78.1°
08/14 - 02:30 AM83.5°78.1°
08/14 - 02:15 AM83.9°78.4°
08/14 - 02:00 AM84.0°78.4°
08/14 - 01:45 AM84.1°78.5°
08/14 - 01:30 AM84.3°78.5°
08/14 - 01:15 AM84.5°78.6°
08/14 - 01:00 AM84.8°78.8°
08/14 - 12:45 AM85.2°79.2°
08/14 - 12:30 AM85.5°79.3°
08/14 - 12:15 AM85.5°79.2°
08/14 - 12:00 AM85.4°79.1°
08/13 - 11:45 PM85.3°78.7°
08/13 - 11:30 PM86.5°79.6°
08/13 - 11:15 PM87.0°79.9°
08/13 - 11:00 PM87.1°79.7°
08/13 - 10:45 PM86.7°79.1°
08/13 - 10:30 PM86.6°79.1°
08/13 - 10:15 PM86.5°79.1°
08/13 - 10:00 PM86.8°79.1°
08/13 - 09:45 PM87.8°79.7°
08/13 - 09:30 PM88.3°79.8°
08/13 - 09:15 PM88.9°80.0°
08/13 - 09:00 PM89.5°80.1°
08/13 - 08:45 PM89.9°80.0°
08/13 - 08:30 PM90.8°80.5°
08/13 - 08:15 PM91.4°80.3°
08/13 - 08:00 PM91.1°79.2°
08/13 - 07:45 PM91.3°78.5°
08/13 - 07:30 PM92.5°79.0°
08/13 - 07:15 PM93.8°79.6°
08/13 - 07:00 PM94.8°79.9°
08/13 - 06:45 PM95.4°79.9°
08/13 - 06:30 PM96.8°80.8°
08/13 - 06:15 PM97.0°79.5°
08/13 - 06:00 PM98.2°78.7°
08/13 - 05:45 PM99.6°77.5°
08/13 - 05:30 PM101.6°79.4°
08/13 - 05:15 PM101.2°80.7°
08/13 - 05:00 PM100.3°81.1°
08/13 - 04:45 PM99.3°80.7°
08/13 - 04:30 PM98.5°79.4°
08/13 - 04:15 PM99.0°79.7°
08/13 - 04:00 PM99.8°81.2°
08/13 - 03:45 PM99.0°80.1°
08/13 - 03:30 PM99.1°80.1°
08/13 - 03:15 PM99.3°80.3°
08/13 - 03:00 PM98.9°78.9°
08/13 - 02:45 PM99.2°78.6°
08/13 - 02:30 PM99.4°78.3°
08/13 - 02:15 PM99.1°77.6°
08/13 - 02:00 PM98.5°77.1°
08/13 - 01:45 PM98.6°77.4°
08/13 - 01:30 PM98.7°79.0°
08/13 - 01:15 PM97.6°79.9°
08/13 - 01:00 PM96.2°80.4°
08/13 - 12:45 PM94.4°80.1°
08/13 - 12:30 PM92.9°80.1°
08/13 - 12:15 PM92.5°81.3°
08/13 - 12:00 PM93.1°83.6°
08/13 - 11:45 AM92.0°83.9°
08/13 - 11:30 AM90.4°83.6°
08/13 - 11:15 AM89.4°83.6°
08/13 - 11:00 AM88.8°83.7°
08/13 - 10:45 AM87.8°83.3°
08/13 - 10:30 AM87.5°83.2°
08/13 - 10:15 AM86.2°82.2°
08/13 - 10:00 AM85.7°81.9°
08/13 - 09:45 AM87.3°84.1°
08/13 - 09:30 AM87.0°84.4°
08/13 - 09:15 AM83.7°81.3°
08/13 - 09:00 AM81.4°78.9°
08/13 - 08:45 AM80.8°78.3°
08/13 - 08:30 AM79.9°77.6°
08/13 - 08:15 AM79.2°76.8°
08/13 - 08:00 AM79.0°76.6°
08/13 - 07:45 AM79.1°76.6°
08/13 - 07:30 AM78.8°76.3°
08/13 - 07:15 AM78.8°76.1°
08/13 - 07:00 AM78.7°76.0°
08/13 - 06:45 AM78.4°75.7°
08/13 - 06:30 AM78.2°75.3°
08/13 - 06:15 AM78.1°75.1°
08/13 - 06:00 AM78.1°75.1°
08/13 - 05:45 AM77.8°74.8°
08/13 - 05:30 AM77.7°74.6°
08/13 - 05:15 AM77.7°74.4°
08/13 - 05:00 AM77.6°74.3°
08/13 - 04:45 AM77.6°74.1°
08/13 - 04:30 AM78.1°74.5°
08/13 - 04:15 AM78.3°74.6°
08/13 - 04:00 AM78.4°74.5°
08/13 - 03:45 AM78.0°74.0°
08/13 - 03:30 AM78.2°74.0°
08/13 - 03:15 AM78.5°74.1°
08/13 - 03:00 AM78.6°74.2°
08/13 - 02:45 AM77.8°73.0°
08/13 - 02:30 AM78.0°73.0°
08/13 - 02:15 AM78.0°72.7°
08/13 - 02:00 AM78.0°72.4°
08/13 - 01:45 AM78.2°72.2°
08/13 - 01:30 AM77.8°71.5°
08/13 - 01:15 AM77.4°70.5°
08/13 - 01:00 AM77.7°70.2°
08/13 - 12:45 AM77.8°69.4°
08/13 - 12:30 AM78.1°68.6°
08/13 - 12:15 AM79.0°68.2°
08/13 - 12:00 AM79.5°66.6°
08/12 - 11:45 PM85.0°68.9°
08/12 - 11:30 PM89.4°73.7°
08/12 - 11:15 PM89.8°73.3°
08/12 - 11:00 PM90.0°72.1°
08/12 - 10:45 PM90.7°71.4°
08/12 - 10:30 PM91.3°70.3°
08/12 - 10:15 PM92.0°69.7°
08/12 - 10:00 PM92.8°69.7°
08/12 - 09:45 PM93.5°69.5°
08/12 - 09:30 PM93.9°69.5°
08/12 - 09:15 PM93.9°69.8°
08/12 - 09:00 PM93.3°70.1°
08/12 - 08:45 PM92.6°70.4°
08/12 - 08:30 PM93.1°71.4°
08/12 - 08:15 PM93.9°71.8°
08/12 - 08:00 PM94.5°71.2°
08/12 - 07:45 PM95.0°70.1°
08/12 - 07:30 PM94.9°69.9°
08/12 - 07:15 PM95.1°70.6°
08/12 - 07:00 PM95.9°70.9°
08/12 - 06:45 PM97.1°70.8°
08/12 - 06:30 PM97.8°70.8°
08/12 - 06:15 PM98.7°71.7°
08/12 - 06:00 PM99.4°72.1°
08/12 - 05:45 PM99.7°72.4°
08/12 - 05:30 PM100.0°73.2°
08/12 - 05:15 PM99.8°73.9°
08/12 - 05:00 PM99.8°74.6°
08/12 - 04:45 PM100.6°74.8°
08/12 - 04:30 PM100.2°74.4°
08/12 - 04:15 PM99.4°73.7°
08/12 - 04:00 PM99.0°73.5°
08/12 - 03:45 PM98.7°73.3°
08/12 - 03:30 PM98.6°72.8°
08/12 - 03:15 PM100.2°73.6°
08/12 - 03:00 PM101.3°75.2°
08/12 - 02:45 PM100.5°74.9°
08/12 - 02:30 PM100.1°74.3°
08/12 - 02:15 PM101.2°74.7°
08/12 - 02:00 PM101.2°74.8°
08/12 - 01:45 PM101.4°74.7°
08/12 - 01:30 PM101.2°74.8°
08/12 - 01:15 PM101.1°74.8°
08/12 - 01:00 PM101.7°74.7°
08/12 - 12:45 PM102.3°73.1°
08/12 - 12:30 PM103.0°70.7°
08/12 - 12:15 PM102.9°70.9°
08/12 - 12:00 PM102.4°70.5°
08/12 - 11:45 AM101.5°70.1°
08/12 - 11:30 AM100.9°68.8°
08/12 - 11:15 AM101.7°69.3°
08/12 - 11:00 AM101.3°69.2°
08/12 - 10:45 AM100.5°68.7°
08/12 - 10:30 AM99.4°68.2°
08/12 - 10:15 AM98.9°69.4°
08/12 - 10:00 AM98.8°71.0°
08/12 - 09:45 AM99.0°72.2°
08/12 - 09:30 AM98.5°73.2°
08/12 - 09:15 AM97.3°74.0°
08/12 - 09:00 AM94.0°72.7°
08/12 - 08:45 AM90.2°70.3°
08/12 - 08:30 AM86.6°67.5°
08/12 - 08:15 AM84.9°65.5°
08/12 - 08:00 AM83.8°63.0°
08/12 - 07:45 AM82.2°61.4°
08/12 - 07:30 AM82.7°62.5°
08/12 - 07:15 AM83.0°61.7°
08/12 - 07:00 AM82.0°60.4°
08/12 - 06:45 AM80.5°60.4°
08/12 - 06:30 AM78.8°59.4°
08/12 - 06:15 AM79.5°60.5°
08/12 - 06:00 AM79.9°61.1°
08/12 - 05:45 AM79.7°60.0°